Weather History for KOFK - October, 2010

Change the Weather History Date:

Wednesday, October 27, 2010

  Actual Average Record
Temperature  
Mean Temperature 40 °F 46 °F  
Max Temperature 47 °F 58 °F 90 °F (1922)
Min Temperature 33 °F 35 °F 12 °F (1997)
Degree Days  
Heating Degree Days 25 19  
Month to date heating degree days 267 365  
Since 1 July heating degree days 352 507  
Cooling Degree Days 0 0  
Month to date cooling degree days 8 8  
Year to date cooling degree days 985 914  
Moisture  
Dew Point 29 °F    
Average Humidity 64    
Maximum Humidity 82    
Minimum Humidity 45    
Precipitation  
Precipitation T in 0.05 in 0.81 in (1901)
Month to date precipitation 0.70 1.87  
Year to date precipitation 28.53 25.09  
Snow  
Snow T in 0.10 in - ()
Month to date snowfall T 0.6  
Since 1 July snowfall T 0.6  
Snow Depth 0.00 in    
Sea Level Pressure  
Sea Level Pressure 29.80 in    
Wind  
Wind Speed 23 mph (WNW)    
Max Wind Speed 44 mph    
Max Gust Speed 56 mph    
Visibility 10 miles    
Events Rain , Snow    
T = Trace of Precipitation, MM = Missing Value Source: NWS Daily Summary

Daily Weather History Graph

Daily Weather History Graph

Search for Another Location

Airport or City:

Trip Planner

Search our weather history database for the weather conditions in past years. The results will help you decide how hot, cold, wet, or windy it might be!

Date:

Astronomy

Oct. 27, 2010 Rise Set
Actual Time 7:56 AM CDT 6:30 PM CDT
Civil Twilight 7:27 AM CDT 6:58 PM CDT
Nautical Twilight 6:54 AM CDT 7:31 PM CDT
Astronomical Twilight 6:22 AM CDT 8:04 PM CDT
Moon 9:51 PM CDT (10/27) 12:34 PM CDT (10/27)
Length of Visible Light 11h 31m
Length of Day
10h 33m
Waning Gibbous, 79% of the Moon is Illuminated
Oct 27
Waning Gibbous
Oct 30
Last Quarter
Nov 5
New
Nov 13
First Quarter
Nov 21
Full

Hourly Weather History & Observations

Time (CDT) Temp. Windchill Dew Point Humidity Pressure Visibility Wind Dir Wind Speed Gust Speed Precip Events Conditions
12:56 AM 46.0 °F 39.9 °F 28.0 °F 50% 29.47 in 10.0 mi West 13.8 mph 24.2 mph N/A   Clear
1:56 AM 45.0 °F 37.4 °F 26.1 °F 48% 29.48 in 10.0 mi WSW 18.4 mph - N/A   Clear
2:56 AM 41.0 °F 33.1 °F 28.9 °F 62% 29.50 in 10.0 mi WSW 15.0 mph - N/A   Clear
3:56 AM 42.1 °F 33.6 °F 30.0 °F 62% 29.50 in 10.0 mi WSW 18.4 mph 25.3 mph N/A   Clear
4:56 AM 44.1 °F 35.7 °F 30.0 °F 58% 29.49 in 10.0 mi WSW 20.7 mph 28.8 mph N/A   Clear
5:56 AM 43.0 °F 35.1 °F 30.0 °F 60% 29.51 in 10.0 mi West 17.3 mph 23.0 mph N/A   Clear
6:56 AM 44.1 °F 36.2 °F 30.0 °F 58% 29.54 in 10.0 mi West 18.4 mph 31.1 mph N/A   Scattered Clouds
7:56 AM 45.0 °F 36.9 °F 28.9 °F 53% 29.57 in 10.0 mi West 20.7 mph 28.8 mph N/A   Clear
8:56 AM 45.0 °F 37.6 °F 30.0 °F 56% 29.61 in 10.0 mi West 17.3 mph 27.6 mph N/A   Partly Cloudy
9:56 AM 46.0 °F 35.5 °F 26.1 °F 46% 29.65 in 10.0 mi WNW 39.1 mph 50.6 mph N/A   Clear
10:56 AM 45.0 °F 34.9 °F 25.0 °F 46% 29.69 in 10.0 mi West 32.2 mph 49.5 mph N/A   Partly Cloudy
11:56 AM 46.0 °F 35.9 °F 27.0 °F 47% 29.73 in 10.0 mi WNW 35.7 mph 43.7 mph N/A   Mostly Cloudy
12:56 PM 43.0 °F 32.7 °F 30.0 °F 60% 29.78 in 10.0 mi WNW 28.8 mph 49.5 mph 0.00 in   Mostly Cloudy
1:56 PM 39.0 °F 27.0 °F 32.0 °F 76% 29.83 in 7.0 mi WNW 31.1 mph 48.3 mph 0.00 in Rain Light Rain
2:56 PM 39.9 °F 28.6 °F 30.0 °F 68% 29.87 in 10.0 mi WNW 28.8 mph 39.1 mph 0.00 in   Mostly Cloudy
3:56 PM 37.9 °F 26.1 °F 32.0 °F 79% 29.92 in 10.0 mi WNW 27.6 mph 36.8 mph 0.00 in   Scattered Clouds
4:56 PM 37.0 °F 25.1 °F 30.9 °F 79% 29.97 in 7.0 mi WNW 26.5 mph 38.0 mph 0.00 in Snow Light Snow
5:09 PM 37.4 °F 25.6 °F 30.2 °F 75% 29.95 in 10.0 mi WNW 26.5 mph 36.8 mph 0.00 in   Mostly Cloudy
5:56 PM 37.9 °F 25.9 °F 28.0 °F 68% 30.01 in 10.0 mi WNW 28.8 mph 36.8 mph 0.00 in   Overcast
6:56 PM 36.0 °F 24.2 °F 27.0 °F 70% 30.06 in 10.0 mi WNW 24.2 mph 38.0 mph N/A   Mostly Cloudy
7:56 PM 35.1 °F 23.0 °F 28.9 °F 78% 30.10 in 10.0 mi NW 24.2 mph 33.4 mph N/A   Scattered Clouds
8:56 PM 35.1 °F 23.5 °F 27.0 °F 72% 30.13 in 10.0 mi NW 21.9 mph 31.1 mph N/A   Clear
9:56 PM 36.0 °F 26.3 °F 26.1 °F 67% 30.16 in 10.0 mi WNW 16.1 mph 24.2 mph N/A   Partly Cloudy
10:56 PM 35.1 °F 25.2 °F 26.1 °F 70% 30.18 in 10.0 mi NW 16.1 mph - N/A   Scattered Clouds
11:56 PM 34.0 °F 23.8 °F 25.0 °F 70% 30.21 in 10.0 mi WNW 16.1 mph - N/A   Clear